Date,TemperatureHighF,TemperatureAvgF,TemperatureLowF,DewpointHighF,DewpointAvgF,DewpointLowF,HumidityHigh,HumidityAvg,HumidityLow,PressureMaxIn,PressureMinIn,WindSpeedMaxMPH,WindSpeedAvgMPH,GustSpeedMaxMPH,PrecipitationSumIn
2014-1-8,70.0,56.2,43.0,30.0,25.2,21.0,53,33,16,30.09,29.99,6,1,9,0.00
2014-1-9,68.0,50.6,45.0,33.0,28.6,25.0,56,43,24,30.04,29.92,4,1,5,0.00
2014-1-10,73.0,55.4,39.0,38.0,33.4,30.0,74,47,22,30.12,30.01,3,1,5,0.00
2014-1-11,73.0,56.2,46.0,40.0,33.7,-99.9,67,46,24,30.17,29.98,8,2,12,0.00
2014-1-12,75.0,59.8,46.0,39.0,34.7,20.0,69,43,19,30.19,29.93,11,2,15,0.00
2014-1-13,73.0,62.0,51.0,25.0,20.8,17.0,32,21,14,30.35,30.19,12,5,16,0.00
2014-1-14,76.0,60.0,42.0,27.0,24.2,21.0,53,27,14,30.34,30.21,13,3,21,0.00
2014-1-15,61.0,59.4,53.0,27.0,21.7,21.0,37,23,21,30.23,30.22,3,2,5,0.00
2014-1-17,78.0,65.4,52.0,24.0,21.2,17.0,32,20,10,30.04,30.03,6,2,7,0.00
2014-1-18,78.0,61.6,44.0,31.0,20.9,-99.9,52,24,11,30.12,30.01,6,2,10,0.00
2014-1-19,62.0,54.2,50.0,28.0,24.6,22.0,38,32,26,30.14,30.05,4,2,7,0.00
2014-2-3,65.0,53.5,42.0,38.0,32.6,25.0,62,46,31,29.94,29.83,9,1,14,0.00
2014-2-4,67.0,54.0,41.0,43.0,38.1,35.0,82,57,34,30.07,29.93,4,1,8,0.00
2014-2-5,70.0,59.1,51.0,46.0,41.3,35.0,78,55,29,30.06,29.94,6,1,9,0.00
2014-2-6,71.0,57.5,45.0,46.0,40.1,37.0,75,55,31,30.03,29.88,8,2,15,0.00
2014-2-7,72.0,59.2,45.0,48.0,43.5,40.0,83,58,37,30.11,29.95,6,1,9,0.00
2014-2-8,76.0,59.8,47.0,48.0,42.8,36.0,89,59,25,30.20,30.07,4,1,7,0.00
2014-2-9,80.0,64.8,50.0,45.0,42.1,39.0,75,48,23,30.12,29.93,6,1,8,0.00
2014-2-10,83.0,67.4,49.0,46.0,40.8,35.0,70,41,23,29.99,29.84,8,2,12,0.00
2014-2-11,80.0,67.5,53.0,38.0,34.1,27.0,55,31,15,30.05,29.91,11,3,18,0.00
2014-2-12,83.0,68.0,52.0,39.0,30.2,22.0,49,29,11,30.12,29.98,8,2,13,0.00
2014-2-13,86.0,68.7,52.0,40.0,32.3,28.0,52,29,13,30.04,29.89,6,2,11,0.00
2014-2-14,89.0,69.9,52.0,39.0,34.8,27.0,59,33,11,30.01,29.89,8,3,11,0.00
2014-2-15,90.0,71.3,54.0,43.0,34.7,-99.9,56,30,12,29.98,29.88,6,1,9,0.00
2014-2-16,83.0,66.4,55.0,44.0,40.4,36.0,60,41,19,29.99,29.88,5,1,7,0.00
2014-2-20,80.0,66.1,51.0,42.0,25.0,15.0,65,26,10,30.08,29.85,15,6,23,0.00
2014-2-21,80.0,66.3,55.0,33.0,20.7,15.0,41,19,9,30.01,29.84,7,2,12,0.00
2014-2-22,83.0,61.9,47.0,39.0,28.8,-99.9,55,32,13,29.91,29.81,4,0,5,0.00
2014-2-23,81.0,65.3,51.0,40.0,34.6,30.0,56,34,17,29.97,29.85,4,1,5,0.00
2014-2-24,81.0,63.6,48.0,42.0,38.0,35.0,63,42,20,29.98,29.86,5,1,7,0.00
2014-2-25,76.0,62.6,52.0,56.0,45.6,39.0,71,55,38,29.96,29.88,5,1,8,0.00
2014-2-26,80.0,64.4,51.0,54.0,46.5,42.0,83,57,27,29.98,29.86,5,1,10,0.00
2014-2-27,82.0,69.0,58.0,53.0,49.8,47.0,69,52,36,29.94,29.77,9,2,12,0.00
2014-2-28,81.0,69.7,60.0,58.0,51.5,48.0,68,54,36,29.83,29.65,13,4,18,0.00
2014-3-1,79.0,65.2,57.0,57.0,47.3,-99.9,80,55,35,29.91,29.74,10,2,17,0.02
2014-3-2,74.0,61.5,47.0,48.0,45.4,43.0,88,59,36,30.11,29.92,6,1,9,0.01
2014-3-3,77.0,64.8,50.0,48.0,45.2,41.0,83,53,28,30.06,29.93,6,2,9,0.00
2014-3-4,82.0,66.0,51.0,50.0,45.2,42.0,81,51,25,29.96,29.82,10,1,13,0.00
2014-3-5,60.0,55.6,52.0,46.0,44.9,44.0,76,67,59,29.98,29.91,2,0,7,0.00
2014-4-15,93.0,79.9,52.0,35.0,23.0,12.0,43,17,5,29.90,29.68,4,2,6,0.00
2014-4-16,94.0,75.6,59.0,43.0,36.4,29.0,47,28,10,29.72,29.62,6,1,10,0.00
2014-4-17,91.0,80.3,61.0,51.0,41.6,35.0,51,27,18,29.86,29.74,7,3,13,0.00
2014-4-18,84.0,75.8,67.0,55.0,49.9,45.0,61,42,27,29.83,29.73,13,5,17,0.00
2014-4-19,92.0,77.9,66.0,54.0,46.5,-99.9,57,37,22,29.91,29.80,8,2,13,0.00
2014-4-20,95.0,80.3,60.0,52.0,47.5,43.0,61,35,19,29.99,29.88,7,2,9,0.00
2014-4-21,99.0,85.0,63.0,50.0,47.2,43.0,59,30,16,29.96,29.79,8,3,10,0.00
2014-4-22,96.0,79.0,67.0,49.0,41.2,27.0,47,29,12,29.80,29.67,9,4,16,0.00
2014-4-23,73.0,66.2,59.0,41.0,33.8,26.0,51,32,17,29.82,29.73,7,2,15,0.00
2014-4-30,87.0,78.8,69.0,24.0,20.1,15.0,15,11,9,30.06,29.85,18,10,26,0.00
2014-5-1,92.0,80.4,69.0,32.0,24.5,18.0,24,13,9,30.02,29.88,12,6,20,0.00
2014-5-2,100.0,82.8,58.0,35.0,28.1,19.0,40,17,6,29.96,29.88,9,3,11,0.00
2014-5-5,98.0,82.1,75.0,34.0,31.5,27.0,22,16,8,29.74,29.71,8,5,13,0.00
2014-5-6,79.0,69.4,60.0,45.0,38.7,33.0,49,34,21,29.77,29.68,16,10,31,0.00
2014-5-13,91.0,84.4,75.0,26.0,22.8,18.0,16,11,7,30.02,29.98,10,5,13,0.00
2014-5-14,97.0,84.4,66.0,27.0,23.5,19.0,20,11,6,30.08,29.92,10,5,19,0.00
2014-5-15,103.0,88.8,62.0,36.0,29.3,23.0,34,14,6,30.01,29.86,7,2,10,0.00
2014-5-16,108.0,99.7,85.0,40.0,35.3,30.0,20,12,7,29.91,29.79,6,1,8,0.00
2014-5-17,106.0,67.6,75.0,37.0,8.4,-99.9,22,15,9,29.78,29.66,7,1,12,0.00
2014-5-18,103.0,83.5,67.0,46.0,37.9,27.0,40,22,7,29.72,29.64,9,2,15,0.00
2014-5-19,79.0,65.7,64.0,38.0,19.8,-99.9,38,22,13,29.77,29.69,4,0,11,0.00
2014-5-20,91.0,75.2,63.0,41.0,33.5,-99.9,39,24,11,29.85,29.75,11,4,21,0.00
2014-5-21,88.0,75.0,60.0,46.0,40.4,32.0,50,31,14,29.88,29.77,8,2,15,0.00
2014-5-22,91.0,76.5,60.0,52.0,43.7,-99.9,61,35,18,29.85,29.77,13,3,20,0.00
2014-5-23,93.0,78.3,62.0,53.0,47.1,38.0,62,36,17,29.88,29.79,14,2,20,0.00
2014-5-24,98.0,80.2,66.0,61.0,47.0,-99.9,62,35,15,29.88,29.74,9,3,15,0.00
2014-5-25,101.0,84.8,67.0,57.0,49.6,44.0,54,31,19,29.83,29.70,7,2,10,0.00
2014-5-26,107.0,89.3,69.0,53.0,49.1,44.0,54,28,13,29.85,29.73,7,2,14,0.00
2014-5-27,108.0,88.6,69.0,54.0,46.2,40.0,50,26,10,29.86,29.71,6,2,12,0.00
2014-5-28,107.0,91.6,72.0,53.0,48.2,41.0,46,25,11,29.76,29.62,7,2,10,0.00
2014-5-30,87.0,84.8,83.0,52.0,51.8,51.0,35,32,30,29.70,29.69,0,0,0,0.00
2014-5-31,110.0,91.8,73.0,55.0,39.1,-99.9,49,20,4,29.75,29.64,7,2,13,0.00
2014-6-1,107.0,90.3,68.0,48.0,34.8,22.0,40,17,6,29.75,29.62,6,1,13,0.00
2014-6-2,110.0,92.0,70.0,54.0,37.9,23.0,46,19,6,29.72,29.61,7,2,14,0.00
2014-6-3,109.0,92.6,74.0,39.0,24.4,8.0,27,11,3,29.74,29.62,6,1,14,0.00
2014-6-4,109.0,94.3,79.0,37.0,24.1,10.0,20,9,3,29.70,29.58,7,2,15,0.00
2014-6-5,101.0,82.7,68.0,47.0,33.5,20.0,35,18,10,29.68,29.62,5,1,9,0.00
2014-6-9,108.0,92.4,73.0,59.0,52.2,43.0,50,28,13,29.73,29.60,9,2,14,0.00
2014-6-10,103.0,90.6,74.0,57.0,47.9,36.0,44,24,12,29.69,29.59,11,3,20,0.00
2014-6-11,108.0,91.3,70.0,52.0,44.8,33.0,42,23,8,29.75,29.63,8,2,13,0.00
2014-6-12,103.0,85.0,71.0,55.0,43.6,30.0,46,27,8,29.79,29.72,4,0,7,0.00
2014-6-13,110.0,92.3,76.0,61.0,42.7,22.0,41,22,8,29.76,29.61,9,2,15,0.00
2014-6-14,106.0,89.3,67.0,39.0,27.4,-99.9,29,13,4,29.72,29.59,9,2,15,0.00
2014-6-15,105.0,89.9,68.0,44.0,29.4,14.0,35,13,4,29.71,29.63,8,2,17,0.00
2014-6-16,107.0,90.3,67.0,40.0,28.1,10.0,32,13,3,29.77,29.64,10,2,17,0.00
2014-6-17,98.0,86.0,76.0,45.0,38.1,31.0,32,19,13,29.79,29.67,9,3,17,0.00
2014-6-18,102.0,86.8,72.0,43.0,38.0,29.0,33,20,8,29.79,29.70,7,2,13,0.00
2014-6-19,106.0,88.6,68.0,51.0,43.7,36.0,47,24,10,29.83,29.73,5,1,10,0.00
2014-6-23,102.0,100.1,99.0,35.0,33.9,32.0,11,10,9,29.67,29.67,1,0,4,0.00
2014-6-24,106.0,96.9,78.0,57.0,43.8,33.0,37,18,10,29.82,29.67,7,2,12,0.00
2014-6-25,106.0,88.6,70.0,62.0,49.7,38.0,45,29,11,29.76,29.63,11,3,14,0.00
2014-6-26,108.0,92.3,78.0,62.0,53.0,43.0,53,29,13,29.75,29.60,13,4,19,0.00
2014-6-27,106.0,92.4,78.0,54.0,51.0,46.0,40,26,14,29.70,29.57,10,3,14,0.00
2014-6-28,106.0,90.5,76.0,61.0,57.4,54.0,56,35,21,29.72,29.63,9,2,13,0.00
2014-7-4,106.0,93.8,86.0,72.0,69.1,65.0,61,46,29,29.94,29.81,12,2,17,0.00
2014-7-5,106.0,93.3,87.0,73.0,64.5,-99.9,60,42,29,29.96,29.82,15,4,23,0.05
2014-7-6,110.0,96.5,82.0,73.0,67.6,62.0,72,43,24,29.89,29.69,10,1,18,0.01
2014-7-7,114.0,99.4,85.0,70.0,64.4,59.0,57,35,18,29.77,29.62,7,2,13,0.00
2014-7-8,106.0,94.9,86.0,78.0,72.3,65.0,69,50,35,29.83,29.70,11,4,16,0.00
2014-7-9,103.0,93.9,86.0,77.0,70.3,66.0,69,48,32,29.88,29.72,10,4,15,0.00
2014-7-10,108.0,94.1,81.0,75.0,64.4,48.0,74,44,14,29.83,29.67,7,2,12,0.00
2014-7-11,109.0,95.9,76.0,58.0,48.0,42.0,44,22,11,29.84,29.72,11,2,16,0.00
2014-7-12,110.0,95.7,78.0,61.0,53.4,44.0,50,27,12,29.85,29.72,6,2,9,0.00
2014-7-14,103.0,92.1,82.0,71.0,66.1,58.0,69,45,28,29.92,29.82,9,2,16,0.02
2014-7-15,107.0,93.1,80.0,68.0,64.8,60.0,67,43,22,29.93,29.76,9,2,15,0.00
2014-7-22,114.0,104.8,90.0,56.0,49.3,43.0,31,17,10,29.89,29.74,4,1,8,0.00
2014-7-23,118.0,100.6,80.0,62.0,51.1,41.0,48,22,8,29.83,29.67,6,1,9,0.00
2014-7-24,116.0,100.8,86.0,68.0,54.9,47.0,41,24,11,29.75,29.60,10,2,19,0.00
2014-7-25,110.0,99.4,89.0,76.0,68.6,63.0,58,39,25,29.80,29.68,15,6,21,0.00
2014-7-26,108.0,98.7,89.0,71.0,67.9,65.0,52,38,26,29.87,29.72,8,4,13,0.00
2014-7-27,102.0,96.4,88.0,67.0,65.4,64.0,50,37,29,29.86,29.79,4,1,4,0.07
2014-7-28,108.0,94.5,81.0,70.0,66.4,63.0,65,42,24,29.96,29.78,7,1,12,0.01
2014-7-29,112.0,98.0,83.0,69.0,63.5,57.0,59,36,18,29.88,29.73,6,1,8,0.00
2014-7-30,116.0,101.5,83.0,62.0,57.1,51.0,42,25,13,29.81,29.68,7,2,11,0.00
2014-7-31,106.0,88.6,87.0,77.0,63.8,62.0,54,43,34,29.83,29.74,8,2,14,0.00
2014-8-1,110.0,103.1,94.0,66.0,65.4,64.0,38,30,24,29.85,29.70,7,3,16,0.00
2014-8-2,94.0,85.6,81.0,75.0,69.9,63.0,74,61,37,29.93,29.77,9,2,16,0.04
2014-8-3,99.0,84.0,77.0,75.0,71.1,67.0,86,67,39,29.88,29.78,16,2,22,0.01
2014-8-4,101.0,94.4,78.0,70.0,63.7,56.0,76,38,31,29.91,29.78,8,2,15,0.00
2014-8-5,107.0,93.7,76.0,62.0,48.8,40.0,41,24,11,29.91,29.78,5,1,7,0.00
2014-8-6,108.0,92.4,74.0,54.0,40.4,25.0,44,20,6,29.87,29.73,6,2,14,0.00
2014-8-7,104.0,89.8,74.0,75.0,55.8,38.0,77,36,14,29.84,29.71,11,3,18,0.00
2014-8-8,104.0,89.8,76.0,69.0,59.6,49.0,56,38,26,29.84,29.71,10,3,17,0.00
2014-8-9,107.0,93.0,80.0,75.0,61.6,53.0,75,38,20,29.89,29.75,8,3,15,0.00
2014-8-10,92.0,85.1,83.0,76.0,72.7,66.0,78,67,50,29.87,29.82,4,1,9,0.00
2014-8-12,96.0,88.5,81.0,75.0,71.6,70.0,79,58,43,29.91,29.76,18,3,27,0.02
2014-8-13,99.0,89.7,80.0,76.0,72.2,70.0,77,58,42,29.89,29.76,11,4,19,0.01
2014-8-14,106.0,93.6,81.0,73.0,68.4,63.0,72,47,26,29.86,29.72,7,2,12,0.00
2014-8-15,105.0,94.5,84.0,74.0,69.7,64.0,65,47,28,29.90,29.75,9,2,12,0.00
2014-8-16,108.0,91.4,84.0,79.0,71.5,65.0,82,53,27,29.91,29.75,6,2,14,0.00
2014-8-17,112.0,97.9,84.0,75.0,68.4,65.0,62,41,24,29.84,29.66,5,2,9,0.00
2014-8-18,97.0,87.6,78.0,77.0,72.0,65.0,82,61,38,29.84,29.71,16,4,25,0.02
2014-8-19,107.0,92.1,84.0,79.0,70.6,56.0,84,55,19,29.76,29.62,9,4,13,0.02
2014-8-20,102.0,90.2,79.0,73.0,63.9,54.0,66,45,24,29.83,29.69,9,3,17,0.00
2014-8-21,101.0,88.8,79.0,70.0,66.1,59.0,67,50,28,29.84,29.75,9,3,18,0.00
2014-8-22,98.0,91.6,82.0,65.0,60.2,57.0,57,36,27,29.83,29.75,8,2,13,0.00
2014-8-23,101.0,85.6,74.0,67.0,57.8,51.0,76,42,20,29.85,29.69,5,1,7,0.00
2014-8-24,105.0,89.3,72.0,70.0,60.7,46.0,76,44,15,29.78,29.65,8,2,11,0.00
2014-8-25,103.0,93.3,83.0,79.0,71.2,63.0,81,52,30,29.82,29.68,10,4,16,0.00
2014-8-26,104.0,91.3,83.0,75.0,71.1,66.0,71,54,30,29.89,29.75,8,3,12,0.00
2014-8-27,107.0,95.2,80.0,73.0,60.4,51.0,76,37,16,29.94,29.80,7,1,10,0.00
2014-8-28,111.0,95.3,79.0,64.0,53.9,35.0,55,30,8,29.87,29.70,8,1,12,0.00
2014-8-29,112.0,91.4,76.0,60.0,51.8,45.0,54,29,11,29.75,29.61,2,0,5,0.00
2014-8-30,114.0,91.9,78.0,59.0,50.0,47.0,44,25,12,29.71,29.59,6,2,12,0.00
2014-9-5,101.0,91.5,84.0,78.0,72.8,67.0,72,55,42,29.83,29.70,10,4,15,0.00
2014-9-6,100.0,88.6,83.0,77.0,74.8,72.0,78,66,42,29.87,29.81,4,2,11,0.00
2014-9-11,107.0,99.1,87.0,69.0,59.1,55.0,40,28,20,29.78,29.65,3,1,7,0.00
2014-9-12,110.0,92.9,77.0,65.0,57.8,50.0,64,36,15,29.74,29.61,5,0,7,0.00
2014-9-13,107.0,93.8,80.0,71.0,59.7,51.0,65,32,22,29.74,29.60,10,2,14,0.00
2014-9-14,107.0,95.9,83.0,65.0,61.9,59.0,51,34,23,29.73,29.62,7,1,12,0.00
2014-9-15,109.0,96.6,83.0,76.0,64.5,56.0,66,39,19,29.76,29.64,7,2,13,0.00
2014-9-16,97.0,90.4,85.0,76.0,69.9,64.0,73,53,37,29.81,29.70,11,4,17,0.00
2014-9-17,100.0,91.6,82.0,76.0,69.2,66.0,77,50,35,29.74,29.61,7,1,14,0.00
2014-9-18,105.0,93.8,83.0,76.0,63.6,47.0,78,42,15,29.71,29.59,7,2,12,0.00
2014-9-19,101.0,90.4,76.0,68.0,57.0,53.0,54,34,21,29.79,29.67,6,1,11,0.00
2014-9-20,101.0,87.0,77.0,76.0,66.1,55.0,84,53,24,29.81,29.68,10,3,15,0.00
2014-9-21,101.0,87.7,76.0,65.0,57.1,46.0,62,38,20,29.85,29.74,7,1,9,0.00
2014-9-22,104.0,88.5,73.0,71.0,58.1,52.0,65,40,19,29.89,29.77,5,2,10,0.00
2014-9-23,105.0,90.4,77.0,71.0,62.7,53.0,75,45,19,29.88,29.73,4,0,9,0.00
2014-9-29,91.0,77.4,61.0,55.0,47.1,40.0,67,38,17,29.85,29.75,4,0,8,0.00
2014-9-30,96.0,79.2,62.0,53.0,47.4,43.0,66,37,17,29.81,29.66,3,1,6,0.00
2014-10-1,95.0,81.0,67.0,63.0,53.0,47.0,61,40,21,29.78,29.66,4,0,7,0.00
2014-10-2,93.0,83.6,70.0,49.0,32.2,25.0,42,17,10,29.96,29.80,14,5,21,0.00
2014-10-3,98.0,87.3,67.0,38.0,27.7,23.0,31,13,7,30.01,29.88,10,4,16,0.00
2014-10-4,101.0,77.0,63.0,46.0,35.6,32.0,45,23,9,29.92,29.79,6,1,10,0.00
2014-10-5,99.0,79.2,64.0,64.0,55.1,50.0,70,46,22,29.90,29.80,5,1,9,0.00
2014-10-6,93.0,82.4,69.0,70.0,64.2,59.0,83,57,32,29.88,29.78,4,0,7,0.00
2014-10-7,87.0,78.6,72.0,73.0,69.0,62.0,85,73,55,29.90,29.81,6,0,10,0.04
2014-10-8,86.0,76.6,70.0,67.0,63.2,57.0,85,66,40,29.87,29.75,3,0,7,0.01
2014-10-9,92.0,80.1,67.0,69.0,62.8,59.0,81,58,38,29.87,29.76,6,1,10,0.00
2014-10-10,93.0,82.5,69.0,72.0,66.6,59.0,91,63,34,29.93,29.81,5,1,8,0.00
2014-10-11,96.0,81.6,71.0,72.0,62.0,52.0,93,57,24,29.91,29.79,6,1,9,0.00
2014-10-12,97.0,77.8,64.0,64.0,56.0,48.0,78,52,20,29.84,29.73,5,1,9,0.00
2014-10-13,93.0,80.1,67.0,61.0,32.2,18.0,68,22,7,29.99,29.84,8,2,10,0.00
2014-10-14,94.0,78.2,62.0,36.0,33.2,29.0,36,21,12,29.93,29.78,9,3,10,0.00
2014-10-15,92.0,79.2,61.0,54.0,47.5,39.0,50,34,22,29.88,29.78,4,1,8,0.00
2014-10-19,92.0,77.3,65.0,67.0,62.4,54.0,88,64,28,29.80,29.69,5,0,7,0.00
2014-10-20,92.0,81.1,70.0,67.0,60.0,53.0,82,53,27,29.84,29.72,4,0,7,0.00
2014-10-21,94.0,79.7,66.0,63.0,58.7,54.0,81,52,28,29.82,29.70,5,0,7,0.00
2014-10-22,94.0,80.0,67.0,64.0,57.4,48.0,83,51,21,29.88,29.78,4,1,7,0.00
2014-10-23,96.0,80.0,65.0,56.0,53.3,50.0,70,43,22,29.96,29.84,5,1,7,0.00
2014-10-24,97.0,80.5,64.0,55.0,51.1,47.0,66,39,20,29.97,29.84,7,1,9,0.00
2014-10-25,96.0,80.5,68.0,65.0,54.0,49.0,66,42,22,29.95,29.82,4,0,7,0.00
2014-10-26,91.0,79.6,67.0,68.0,59.5,50.0,90,55,25,29.88,29.73,7,1,12,0.00
2014-10-27,88.0,76.7,63.0,57.0,49.9,44.0,70,42,22,29.86,29.75,4,0,7,0.00
2014-10-28,89.0,72.5,59.0,50.0,43.8,34.0,68,40,15,29.98,29.87,5,0,7,0.00
2014-10-29,90.0,73.5,59.0,44.0,40.1,35.0,53,33,15,30.01,29.89,5,1,8,0.00
2014-10-30,91.0,74.8,59.0,50.0,43.9,39.0,53,36,18,29.95,29.83,6,1,8,0.00
2014-10-31,89.0,73.3,58.0,64.0,53.6,44.0,77,52,34,29.86,29.71,8,2,14,0.00
2014-11-1,80.0,70.3,62.0,64.0,48.1,41.0,78,47,30,29.91,29.73,10,4,19,0.00
2014-11-2,74.0,64.8,55.0,45.0,41.9,39.0,62,44,29,29.99,29.90,8,2,12,0.00
2014-11-3,76.0,64.2,49.0,43.0,33.4,26.0,73,36,18,30.09,29.98,15,4,21,0.00
2014-11-4,77.0,67.8,59.0,31.0,28.4,24.0,31,23,18,30.16,30.03,15,6,21,0.00
2014-11-5,83.0,71.5,58.0,28.0,24.5,20.0,29,18,11,30.11,29.98,13,6,20,0.00
2014-11-6,87.0,72.1,56.0,39.0,32.8,27.0,37,25,15,30.19,30.04,9,3,16,0.00
2014-11-7,87.0,73.1,61.0,47.0,39.0,29.0,50,30,20,30.10,29.96,9,2,11,0.00
2014-11-8,88.0,69.7,52.0,44.0,40.2,35.0,72,38,16,30.05,29.92,6,1,8,0.00
2014-11-9,87.0,72.0,57.0,48.0,41.1,36.0,53,35,19,29.94,29.72,8,1,12,0.00
2014-11-10,86.0,71.8,55.0,61.0,51.8,46.0,79,52,30,29.78,29.67,6,1,13,0.00
2014-11-11,84.0,71.1,58.0,60.0,54.2,48.0,79,57,31,29.83,29.74,8,2,15,0.00
2014-11-12,77.0,65.3,56.0,59.0,50.0,46.0,90,60,33,29.91,29.79,5,1,9,0.00
2014-11-13,80.0,65.8,54.0,62.0,55.2,48.0,87,70,52,30.00,29.88,4,1,10,0.00
2014-11-14,77.0,68.4,61.0,63.0,56.3,49.0,90,69,38,29.94,29.85,1,0,3,0.00
2014-11-15,79.0,65.3,55.0,64.0,56.0,50.0,84,74,46,30.00,29.84,5,1,8,0.00
2014-11-16,64.0,62.7,60.0,52.0,36.6,15.0,68,44,15,30.14,29.85,17,7,27,0.00
2014-11-17,64.0,64.0,64.0,15.0,15.0,15.0,15,15,15,30.14,30.14,17,17,17,0.00
2014-11-18,64.0,64.0,64.0,15.0,15.0,15.0,15,15,15,30.14,30.14,17,17,17,0.00
2014-11-19,74.0,63.6,50.0,33.0,23.9,15.0,49,24,12,30.14,30.00,17,4,17,0.00
2014-11-20,74.0,58.8,45.0,36.0,30.2,23.0,63,37,15,30.07,29.90,4,1,7,0.00
2014-11-21,73.0,61.2,50.0,51.0,43.1,36.0,70,52,38,29.98,29.85,9,2,16,0.00
2014-11-22,77.0,59.8,45.0,48.0,41.9,39.0,82,54,31,30.07,29.88,4,1,7,0.00
2014-11-23,75.0,62.6,50.0,48.0,27.9,9.0,80,36,10,30.15,29.90,16,6,30,0.00
2014-11-24,73.0,63.8,51.0,21.0,17.0,14.0,25,17,12,30.29,30.15,14,6,20,0.00
2014-11-25,72.0,62.0,46.0,29.0,19.5,12.0,36,22,10,30.45,30.28,9,2,13,0.00
2014-11-26,77.0,63.1,45.0,32.0,25.2,21.0,52,27,13,30.29,30.14,10,4,12,0.00
2014-11-27,83.0,68.7,51.0,33.0,28.5,23.0,47,24,13,30.16,30.01,6,3,9,0.00
2014-11-28,80.0,60.2,51.0,40.0,31.7,29.0,53,36,17,30.01,29.85,5,2,8,0.00
2014-11-29,77.0,57.5,48.0,49.0,39.1,31.0,68,50,32,29.91,29.78,4,1,5,0.00
2014-11-30,74.0,60.5,51.0,60.0,47.6,44.0,89,65,35,30.04,29.82,5,0,9,0.00
2014-12-1,74.0,62.1,50.0,51.0,46.7,43.0,81,59,38,30.16,30.03,5,1,9,0.00
2014-12-2,69.0,64.4,60.0,50.0,46.5,44.0,66,53,43,30.02,29.90,3,0,5,0.00
2014-12-3,66.0,63.8,61.0,58.0,52.4,44.0,86,67,47,30.03,29.93,7,2,10,0.02
2014-12-4,68.0,62.1,58.0,62.0,58.5,56.0,94,88,78,30.03,29.92,7,1,8,0.17
2014-12-5,74.0,64.8,57.0,62.0,58.4,55.0,94,81,60,30.13,30.03,7,1,10,0.01
2014-12-6,76.0,63.9,57.0,61.0,54.3,51.0,92,72,45,30.16,30.07,6,1,10,0.01
2014-12-7,57.0,55.3,55.0,52.0,51.1,51.0,87,86,82,30.15,30.14,0,0,0,0.00
2014-12-9,78.0,71.5,56.0,45.0,43.7,42.0,65,38,29,30.06,29.94,10,5,16,0.00
2014-12-10,77.0,59.8,51.0,45.0,39.5,40.0,72,44,28,30.01,29.89,6,1,9,0.00
2014-12-11,78.0,61.6,51.0,53.0,46.0,43.0,76,57,36,29.99,29.89,6,2,8,0.00
2014-12-12,73.0,61.2,53.0,58.0,52.2,41.0,92,73,43,30.02,29.89,12,3,20,0.08
2014-12-13,67.0,57.8,48.0,53.0,44.9,38.0,93,66,35,30.09,30.00,8,2,19,0.08
2014-12-14,67.0,52.8,42.0,45.0,39.7,38.0,89,63,35,30.14,30.04,3,1,6,0.00
2014-12-15,65.0,54.9,48.0,43.0,40.3,38.0,74,59,40,30.10,29.98,6,2,8,0.00
2014-12-16,68.0,56.2,47.0,51.0,42.9,38.0,88,63,42,30.04,29.96,5,1,8,0.05
2014-12-17,63.0,54.1,47.0,54.0,49.4,45.0,95,85,67,30.11,29.99,5,0,8,0.07
2014-12-18,65.0,53.5,44.0,53.0,46.7,42.0,94,79,53,30.19,30.07,5,1,8,0.01
2014-12-19,66.0,53.4,43.0,45.0,43.2,40.0,92,71,44,30.24,30.12,3,1,7,0.00
2014-12-20,67.0,49.3,44.0,47.0,39.3,40.0,89,69,44,30.18,30.05,3,0,4,0.00
2014-12-21,67.0,56.6,46.0,46.0,43.9,41.0,85,64,44,30.14,30.02,8,2,12,0.00
2014-12-22,74.0,59.6,46.0,52.0,46.6,42.0,86,65,39,30.04,29.88,4,1,8,0.00
2014-12-23,75.0,62.2,49.0,48.0,35.1,22.0,87,44,17,30.16,29.95,13,4,20,0.00
2014-12-24,68.0,57.1,45.0,28.0,22.9,15.0,45,28,13,30.15,29.80,8,2,10,0.00
2014-12-25,66.0,57.6,47.0,35.0,24.4,11.0,62,31,14,29.89,29.68,13,6,21,0.00
2014-12-26,60.0,49.0,37.0,25.0,20.6,17.0,53,35,19,30.18,29.90,10,2,15,0.00
2014-12-27,59.0,49.0,39.0,24.0,18.3,16.0,54,29,19,30.35,30.17,13,4,21,0.00
2014-12-28,59.0,44.4,32.0,25.0,21.5,17.0,67,44,19,30.32,30.15,5,1,7,0.00
2014-12-29,61.0,45.5,34.0,27.0,22.3,18.0,63,42,19,30.19,30.01,6,2,8,0.00
2014-12-30,65.0,49.4,35.0,41.0,27.2,22.0,69,44,27,30.01,29.88,8,3,12,0.00
2014-12-31,54.0,46.1,36.0,36.0,28.9,23.0,83,53,33,30.07,29.90,13,6,18,0.02
2015-1-1,53.0,41.3,31.0,31.0,25.6,21.0,80,57,29,30.21,30.05,10,3,14,0.01
2015-1-2,57.0,43.1,31.0,28.0,23.1,19.0,77,49,23,30.16,30.06,11,3,16,0.00